Tracking 30743 objects as of 21-Jun-2025
HD Live streaming from Space Station
objects crossing your sky now

ARIANE 2 DEB

Track ARIANE 2 DEB now!
10-day predictions


NORAD ID: 33584
Int'l Code: 1989-027E
Perigee: 391.4 km
Apogee: 21,572.8 km
Inclination: 6.0 °
Period: 379.2 minutes
Semi major axis: 17353 km
RCS: 0.3666 m2 (medium)
Launch date: April 2, 1989
Source: France (FR)
Launch site: FRENCH GUIANA (FRGUI)

Note: This is SATELLITE DEBRIS
Your satellite tracking list
Your tracking list is empty




NASA's NSSDC Master Catalog

Two Line Element Set (TLE):
1 33584U 89027E   25171.65999672  .00004272  00000-0  39052-2 0  9994
2 33584   5.9847 324.4890 6103063 162.0450 236.0089  3.79784545152867
Source of the keplerian elements: AFSPC